| time (UTC) | temp F | wind direction | speed MPH | gust MPH | rain 1hr in | rain 24hr in | rain mn in | humidity % | barometer mb |
| 20260507200732 | 61 | 303 | 9.0 | 13.0 | 0.00 | 0.00 | 0.00 | 29 | 1018.7 |
| 20260507200227 | 61 | 279 | 6.0 | 12.0 | 0.00 | 0.00 | 0.00 | 28 | 1018.7 |
| 20260507195724 | 61 | 301 | 7.0 | 10.0 | 0.00 | 0.00 | 0.00 | 29 | 1018.7 |
| 20260507195221 | 61 | 319 | 5.0 | 6.0 | 0.00 | 0.00 | 0.00 | 30 | 1019.0 |
| 20260507194718 | 60 | 266 | 6.0 | 15.0 | 0.00 | 0.00 | 0.00 | 31 | 1019.1 |
| 20260507194214 | 60 | 328 | 4.0 | 7.0 | 0.00 | 0.00 | 0.00 | 29 | 1019.1 |
| 20260507193706 | 60 | 323 | 2.0 | 12.0 | 0.00 | 0.00 | 0.00 | 30 | 1019.0 |
| 20260507193203 | 60 | 263 | 6.0 | 9.0 | 0.00 | 0.00 | 0.00 | 30 | 1019.2 |
| 20260507192658 | 59 | 318 | 9.0 | 10.0 | 0.00 | 0.00 | 0.00 | 30 | 1019.1 |
| 20260507192156 | 59 | 256 | 3.0 | 13.0 | 0.00 | 0.00 | 0.00 | 31 | 1019.2 |
| 20260507191651 | 59 | 334 | 9.0 | 10.0 | 0.00 | 0.00 | 0.00 | 31 | 1019.2 |
| 20260507191149 | 58 | 345 | 5.0 | 11.0 | 0.00 | 0.00 | 0.00 | 31 | 1019.2 |
| 20260507190646 | 59 | 329 | 8.0 | 14.0 | 0.00 | 0.00 | 0.00 | 30 | 1019.5 |
| 20260507190144 | 59 | 344 | 9.0 | 15.0 | 0.00 | 0.00 | 0.00 | 31 | 1019.6 |
| 20260507185642 | 59 | 329 | 13.0 | 15.0 | 0.00 | 0.00 | 0.00 | 31 | 1019.5 |
| 20260507185139 | 59 | 325 | 10.0 | 16.0 | 0.00 | 0.00 | 0.00 | 30 | 1019.5 |
| 20260507184637 | 59 | 25 | 10.0 | 13.0 | 0.00 | 0.00 | 0.00 | 30 | 1019.4 |
| 20260507184135 | 58 | 331 | 11.0 | 14.0 | 0.00 | 0.00 | 0.00 | 29 | 1019.5 |
| 20260507183630 | 58 | 19 | 11.0 | 13.0 | 0.00 | 0.00 | 0.00 | 28 | 1019.6 |
| 20260507183127 | 58 | 6 | 12.0 | 15.0 | 0.00 | 0.00 | 0.00 | 27 | 1019.5 |
| 20260507182624 | 58 | 325 | 7.0 | 9.0 | 0.00 | 0.00 | 0.00 | 26 | 1019.5 |
| 20260507182120 | 58 | 320 | 8.0 | 11.0 | 0.00 | 0.00 | 0.00 | 26 | 1019.4 |
| 20260507181617 | 58 | 11 | 10.0 | 11.0 | 0.00 | 0.00 | 0.00 | 26 | 1019.7 |
| 20260507181113 | 58 | 354 | 9.0 | 10.0 | 0.00 | 0.00 | 0.00 | 26 | 1019.4 |
| 20260507180609 | 58 | 333 | 6.0 | 8.0 | 0.00 | 0.00 | 0.00 | 28 | 1019.5 |
| 20260507180107 | 58 | 316 | 7.0 | 8.0 | 0.00 | 0.00 | 0.00 | 27 | 1019.5 |
| 20260507175602 | 58 | 358 | 4.0 | 7.0 | 0.00 | 0.00 | 0.00 | 25 | 1019.5 |
| 20260507175100 | 58 | 263 | 2.0 | 9.0 | 0.00 | 0.00 | 0.00 | 24 | 1019.6 |
| 20260507174557 | 58 | 309 | 4.0 | 9.0 | 0.00 | 0.00 | 0.00 | 27 | 1019.6 |
| 20260507174055 | 58 | 332 | 4.0 | 7.0 | 0.00 | 0.00 | 0.00 | 25 | 1019.6 |
| 20260507173552 | 58 | 317 | 9.0 | 12.0 | 0.00 | 0.00 | 0.00 | 27 | 1019.9 |
| 20260507173049 | 58 | 353 | 4.0 | 8.0 | 0.00 | 0.00 | 0.00 | 28 | 1019.9 |
| 20260507172544 | 57 | 314 | 6.0 | 9.0 | 0.00 | 0.00 | 0.00 | 29 | 1020.0 |
| 20260507172042 | 57 | 323 | 9.0 | 12.0 | 0.00 | 0.00 | 0.00 | 30 | 1020.0 |
| 20260507171537 | 57 | 72 | 3.0 | 9.0 | 0.00 | 0.00 | 0.00 | 31 | 1020.0 |
| 20260507171034 | 56 | 21 | 8.0 | 11.0 | 0.00 | 0.00 | 0.00 | 29 | 1020.4 |
| 20260507170531 | 56 | 4 | 4.0 | 5.0 | 0.00 | 0.00 | 0.00 | 31 | 1020.1 |
| 20260507170028 | 55 | 79 | 2.0 | 7.0 | 0.00 | 0.00 | 0.00 | 31 | 1020.1 |
| 20260507165524 | 55 | 312 | 5.0 | 7.0 | 0.00 | 0.00 | 0.00 | 32 | 1020.4 |
| 20260507165020 | 55 | 283 | 5.0 | 8.0 | 0.00 | 0.00 | 0.00 | 34 | 1020.4 |
| 20260507164517 | 55 | 0 | 3.0 | 11.0 | 0.00 | 0.00 | 0.00 | 35 | 1020.4 |
| 20260507164014 | 55 | 291 | 8.0 | 11.0 | 0.00 | 0.00 | 0.00 | 36 | 1020.4 |
| 20260507163511 | 54 | 269 | 4.0 | 8.0 | 0.00 | 0.00 | 0.00 | 35 | 1020.4 |
| 20260507163009 | 54 | 257 | 5.0 | 9.0 | 0.00 | 0.00 | 0.00 | 34 | 1020.5 |
| 20260507162509 | 54 | 314 | 6.0 | 9.0 | 0.00 | 0.00 | 0.00 | 33 | 1020.2 |
| 20260507162006 | 54 | 322 | 6.0 | 11.0 | 0.00 | 0.00 | 0.00 | 32 | 1020.4 |
| 20260507161502 | 53 | 318 | 6.0 | 9.0 | 0.00 | 0.00 | 0.00 | 32 | 1020.6 |
| 20260507160959 | 53 | 319 | 4.0 | 9.0 | 0.00 | 0.00 | 0.00 | 34 | 1020.5 |
| 20260507160455 | 53 | 237 | 5.0 | 6.0 | 0.00 | 0.00 | 0.00 | 31 | 1020.5 |
| 20260507155951 | 53 | 244 | 3.0 | 7.0 | 0.00 | 0.00 | 0.00 | 35 | 1020.5 |
| 20260507155447 | 52 | 248 | 4.0 | 6.0 | 0.00 | 0.00 | 0.00 | 36 | 1020.5 |
| 20260507154944 | 52 | 248 | 2.0 | 11.0 | 0.00 | 0.00 | 0.00 | 35 | 1021.0 |
| 20260507154441 | 51 | 262 | 6.0 | 7.0 | 0.00 | 0.00 | 0.00 | 39 | 1020.9 |
| 20260507153938 | 51 | 218 | 11.0 | 11.0 | 0.00 | 0.00 | 0.00 | 39 | 1020.7 |
| 20260507153435 | 50 | 286 | 5.0 | 9.0 | 0.00 | 0.00 | 0.00 | 41 | 1020.9 |
| 20260507152931 | 50 | 224 | 9.0 | 11.0 | 0.00 | 0.00 | 0.00 | 40 | 1020.9 |
| 20260507152427 | 50 | 244 | 4.0 | 6.0 | 0.00 | 0.00 | 0.00 | 40 | 1020.7 |
| 20260507151923 | 49 | 337 | 6.0 | 9.0 | 0.00 | 0.00 | 0.00 | 40 | 1020.9 |
| 20260507151420 | 49 | 256 | 3.0 | 11.0 | 0.00 | 0.00 | 0.00 | 42 | 1020.6 |
| 20260507150917 | 48 | 265 | 2.0 | 9.0 | 0.00 | 0.00 | 0.00 | 43 | 1020.7 |
| 20260507150414 | 48 | 284 | 4.0 | 9.0 | 0.00 | 0.00 | 0.00 | 41 | 1021.0 |
| 20260507145910 | 48 | 309 | 7.0 | 8.0 | 0.00 | 0.00 | 0.00 | 42 | 1020.7 |
| 20260507145406 | 47 | 313 | 3.0 | 6.0 | 0.00 | 0.00 | 0.00 | 43 | 1020.9 |
| 20260507144903 | 46 | 206 | 5.0 | 6.0 | 0.00 | 0.00 | 0.00 | 44 | 1020.7 |
| 20260507144400 | 46 | 275 | 4.0 | 7.0 | 0.00 | 0.00 | 0.00 | 44 | 1020.7 |
| 20260507143857 | 45 | 255 | 4.0 | 7.0 | 0.00 | 0.00 | 0.00 | 44 | 1020.7 |
| 20260507143354 | 45 | 196 | 2.0 | 5.0 | 0.00 | 0.00 | 0.00 | 44 | 1020.7 |
| 20260507142851 | 44 | 246 | 4.0 | 6.0 | 0.00 | 0.00 | 0.00 | 43 | 1020.7 |
| 20260507142347 | 44 | 176 | 5.0 | 6.0 | 0.00 | 0.00 | 0.00 | 44 | 1020.6 |
| 20260507141844 | 44 | 229 | 6.0 | 8.0 | 0.00 | 0.00 | 0.00 | 43 | 1020.9 |
| 20260507141340 | 43 | 215 | 4.0 | 9.0 | 0.00 | 0.00 | 0.00 | 46 | 1020.7 |
| 20260507140837 | 42 | 244 | 6.0 | 14.0 | 0.00 | 0.00 | 0.00 | 45 | 1021.0 |
| 20260507140334 | 42 | 277 | 4.0 | 6.0 | 0.00 | 0.00 | 0.00 | 48 | 1020.9 |
| 20260507135832 | 42 | 301 | 1.0 | 11.0 | 0.00 | 0.00 | 0.00 | 48 | 1020.9 |
| 20260507135328 | 41 | 60 | 2.0 | 6.0 | 0.00 | 0.00 | 0.00 | 48 | 1021.0 |
| 20260507134826 | 41 | 307 | 3.0 | 5.0 | 0.00 | 0.00 | 0.00 | 47 | 1021.1 |
| 20260507134321 | 40 | 314 | 5.0 | 8.0 | 0.00 | 0.00 | 0.00 | 47 | 1021.0 |
| 20260507133817 | 39 | 298 | 3.0 | 4.0 | 0.00 | 0.00 | 0.00 | 49 | 1020.9 |
| 20260507133313 | 39 | 253 | 2.0 | 6.0 | 0.00 | 0.00 | 0.00 | 50 | 1020.5 |
| 20260507132812 | 38 | 257 | 1.0 | 5.0 | 0.00 | 0.00 | 0.00 | 49 | 1020.6 |
| 20260507132308 | 37 | 314 | 2.0 | 3.0 | 0.00 | 0.00 | 0.00 | 51 | 1020.5 |
| 20260507131805 | 36 | 4 | 2.0 | 3.0 | 0.00 | 0.00 | 0.00 | 54 | 1020.4 |
| 20260507131302 | 35 | 353 | 1.0 | 4.0 | 0.00 | 0.00 | 0.00 | 55 | 1020.4 |
| 20260507130758 | 34 | 28 | 3.0 | 4.0 | 0.00 | 0.00 | 0.00 | 58 | 1020.5 |
| 20260507130256 | 34 | 357 | 2.0 | 4.0 | 0.00 | 0.00 | 0.00 | 59 | 1020.4 |
| 20260507125755 | 35 | 37 | 2.0 | 4.0 | 0.00 | 0.00 | 0.00 | 55 | 1020.4 |
| 20260507125252 | 35 | 20 | 3.0 | 4.0 | 0.00 | 0.00 | 0.00 | 56 | 1020.2 |
| 20260507124749 | 35 | 325 | 3.0 | 4.0 | 0.00 | 0.00 | 0.00 | 54 | 1020.1 |
| 20260507124245 | 35 | 63 | 2.0 | 2.0 | 0.00 | 0.00 | 0.00 | 55 | 1020.0 |
| 20260507123744 | 35 | 298 | 3.0 | 3.0 | 0.00 | 0.00 | 0.00 | 54 | 1020.2 |
| 20260507123241 | 33 | 232 | 4.0 | 6.0 | 0.00 | 0.00 | 0.00 | 56 | 1020.0 |
| 20260507122736 | 31 | 168 | 3.0 | 5.0 | 0.00 | 0.00 | 0.00 | 63 | 1020.0 |
| 20260507122232 | 31 | 16 | 2.0 | 2.0 | 0.00 | 0.00 | 0.00 | 64 | 1019.9 |
| 20260507121728 | 31 | 57 | 2.0 | 3.0 | 0.00 | 0.00 | 0.00 | 65 | 1019.7 |
| 20260507121224 | 30 | 40 | 2.0 | 2.0 | 0.00 | 0.00 | 0.00 | 67 | 1019.7 |
| 20260507120720 | 30 | 17 | 2.0 | 2.0 | 0.00 | 0.00 | 0.00 | 66 | 1019.9 |
| 20260507120218 | 30 | 52 | 1.0 | 2.0 | 0.00 | 0.00 | 0.00 | 66 | 1020.0 |
| 20260507115714 | 30 | 27 | 2.0 | 3.0 | 0.00 | 0.00 | 0.00 | 69 | 1019.9 |
| 20260507115209 | 29 | 40 | 3.0 | 4.0 | 0.00 | 0.00 | 0.00 | 69 | 1020.1 |
| 20260507114705 | 30 | 42 | 2.0 | 2.0 | 0.00 | 0.00 | 0.00 | 69 | 1020.1 |
| 20260507114203 | 30 | 1 | 2.0 | 3.0 | 0.00 | 0.00 | 0.00 | 68 | 1020.0 |
| 20260507113700 | 29 | 67 | 2.0 | 4.0 | 0.00 | 0.00 | 0.00 | 68 | 1020.0 |
| 20260507113157 | 29 | 48 | 3.0 | 4.0 | 0.00 | 0.00 | 0.00 | 72 | 1019.7 |
| 20260507112655 | 29 | 50 | 2.0 | 3.0 | 0.00 | 0.00 | 0.00 | 73 | 1019.9 |
| 20260507112151 | 30 | 51 | 2.0 | 3.0 | 0.00 | 0.00 | 0.00 | 70 | 1019.9 |
| 20260507111649 | 30 | 23 | 1.0 | 4.0 | 0.00 | 0.00 | 0.00 | 67 | 1020.2 |
| 20260507111145 | 29 | 30 | 0.0 | 3.0 | 0.00 | 0.00 | 0.00 | 66 | 1020.0 |
| 20260507110641 | 29 | 45 | 3.0 | 4.0 | 0.00 | 0.00 | 0.00 | 71 | 1020.1 |
| 20260507110138 | 29 | 75 | 1.0 | 4.0 | 0.00 | 0.00 | 0.00 | 71 | 1020.1 |
| 20260507105635 | 28 | 27 | 3.0 | 4.0 | 0.00 | 0.00 | 0.00 | 73 | 1020.0 |
| 20260507105131 | 28 | 34 | 3.0 | 4.0 | 0.00 | 0.00 | 0.00 | 74 | 1019.9 |
| 20260507104628 | 28 | 37 | 4.0 | 4.0 | 0.00 | 0.00 | 0.00 | 74 | 1020.0 |
| 20260507104125 | 29 | 29 | 3.0 | 3.0 | 0.00 | 0.00 | 0.00 | 73 | 1019.5 |
| 20260507103621 | 29 | 37 | 2.0 | 4.0 | 0.00 | 0.00 | 0.00 | 72 | 1019.9 |
| 20260507103118 | 30 | 49 | 3.0 | 3.0 | 0.00 | 0.00 | 0.00 | 70 | 1019.7 |
| 20260507102614 | 30 | 37 | 2.0 | 4.0 | 0.00 | 0.00 | 0.00 | 70 | 1020.0 |
| 20260507102110 | 30 | 39 | 3.0 | 5.0 | 0.00 | 0.00 | 0.00 | 68 | 1019.9 |
| 20260507101606 | 28 | 53 | 4.0 | 5.0 | 0.00 | 0.00 | 0.00 | 71 | 1020.1 |
| 20260507101102 | 28 | 3 | 0.0 | 3.0 | 0.00 | 0.00 | 0.00 | 75 | 1020.2 |
| 20260507100600 | 29 | 71 | 0.0 | 2.0 | 0.00 | 0.00 | 0.00 | 74 | 1020.2 |
| 20260507100058 | 30 | 48 | 2.0 | 3.0 | 0.00 | 0.00 | 0.00 | 72 | 1020.2 |
| 20260507095555 | 30 | 35 | 2.0 | 4.0 | 0.00 | 0.00 | 0.00 | 71 | 1020.1 |
| 20260507095052 | 29 | 35 | 5.0 | 6.0 | 0.00 | 0.00 | 0.00 | 74 | 1020.0 |
| 20260507094548 | 29 | 53 | 2.0 | 2.0 | 0.00 | 0.00 | 0.00 | 74 | 1020.1 |
| 20260507094045 | 29 | 17 | 2.0 | 3.0 | 0.00 | 0.00 | 0.00 | 72 | 1019.9 |
| 20260507093543 | 29 | 107 | 1.0 | 3.0 | 0.00 | 0.00 | 0.00 | 73 | 1019.9 |
| 20260507093041 | 29 | 26 | 4.0 | 5.0 | 0.00 | 0.00 | 0.00 | 73 | 1020.2 |
| 20260507092537 | 30 | 34 | 4.0 | 5.0 | 0.00 | 0.00 | 0.00 | 72 | 1020.1 |
| 20260507092034 | 29 | 38 | 4.0 | 5.0 | 0.00 | 0.00 | 0.00 | 74 | 1020.0 |
| 20260507091531 | 28 | 35 | 5.0 | 5.0 | 0.00 | 0.00 | 0.00 | 79 | 1020.1 |
| 20260507091027 | 28 | 68 | 1.0 | 3.0 | 0.00 | 0.00 | 0.00 | 78 | 1020.2 |
| 20260507090523 | 28 | 28 | 3.0 | 4.0 | 0.00 | 0.00 | 0.00 | 79 | 1020.2 |
| 20260507090020 | 28 | 42 | 2.0 | 2.0 | 0.00 | 0.00 | 0.00 | 78 | 1020.4 |
| 20260507085517 | 28 | 23 | 3.0 | 3.0 | 0.00 | 0.00 | 0.00 | 77 | 1020.6 |
| 20260507085014 | 27 | 25 | 3.0 | 6.0 | 0.00 | 0.00 | 0.00 | 79 | 1020.4 |
| 20260507084510 | 27 | 19 | 2.0 | 3.0 | 0.00 | 0.00 | 0.00 | 84 | 1020.5 |
| 20260507084008 | 27 | 24 | 2.0 | 5.0 | 0.00 | 0.00 | 0.00 | 84 | 1020.5 |
| 20260507083503 | 27 | 27 | 2.0 | 4.0 | 0.00 | 0.00 | 0.00 | 84 | 1020.4 |
| 20260507083000 | 27 | 1 | 2.0 | 3.0 | 0.00 | 0.00 | 0.00 | 83 | 1020.2 |
| 20260507082457 | 27 | 58 | 1.0 | 4.0 | 0.00 | 0.00 | 0.00 | 82 | 1020.4 |
| 20260507081953 | 27 | 19 | 3.0 | 4.0 | 0.00 | 0.00 | 0.00 | 84 | 1020.5 |
| 20260507081449 | 28 | 36 | 3.0 | 4.0 | 0.00 | 0.00 | 0.00 | 83 | 1020.6 |
| 20260507080947 | 27 | 53 | 3.0 | 4.0 | 0.00 | 0.00 | 0.00 | 86 | 1020.7 |
| 20260507080442 | 27 | 25 | 3.0 | 4.0 | 0.00 | 0.00 | 0.00 | 87 | 1020.5 |
| 20260507075937 | 27 | 15 | 3.0 | 3.0 | 0.00 | 0.00 | 0.00 | 89 | 1020.5 |
| 20260507075435 | 26 | 42 | 4.0 | 4.0 | 0.00 | 0.00 | 0.00 | 92 | 1020.7 |
| 20260507074931 | 26 | 12 | 2.0 | 4.0 | 0.00 | 0.00 | 0.00 | 93 | 1020.5 |
| 20260507074428 | 26 | 15 | 2.0 | 4.0 | 0.00 | 0.00 | 0.00 | 94 | 1020.5 |
| 20260507073926 | 26 | 29 | 2.0 | 4.0 | 0.00 | 0.00 | 0.00 | 94 | 1020.7 |
| 20260507073422 | 26 | 27 | 2.0 | 3.0 | 0.00 | 0.00 | 0.00 | 95 | 1020.7 |
| 20260507072919 | 26 | 24 | 2.0 | 3.0 | 0.00 | 0.00 | 0.00 | 95 | 1020.7 |
| 20260507072416 | 26 | 34 | 2.0 | 3.0 | 0.00 | 0.00 | 0.00 | 96 | 1020.9 |
| 20260507071908 | 26 | 24 | 2.0 | 2.0 | 0.00 | 0.00 | 0.00 | 96 | 1020.9 |
| 20260507071405 | 26 | 36 | 2.0 | 3.0 | 0.00 | 0.00 | 0.00 | 97 | 1020.6 |
| 20260507070901 | 26 | 35 | 3.0 | 4.0 | 0.00 | 0.00 | 0.00 | 97 | 1020.7 |
| 20260507070358 | 26 | 23 | 2.0 | 4.0 | 0.00 | 0.00 | 0.00 | 97 | 1020.7 |
| 20260507065855 | 26 | 25 | 3.0 | 3.0 | 0.00 | 0.00 | 0.00 | 97 | 1021.0 |
| 20260507065352 | 26 | 30 | 3.0 | 3.0 | 0.00 | 0.00 | 0.00 | 96 | 1020.6 |
| 20260507064849 | 26 | 5 | 2.0 | 3.0 | 0.00 | 0.00 | 0.00 | 96 | 1020.7 |
| 20260507064347 | 26 | 44 | 2.0 | 3.0 | 0.00 | 0.00 | 0.00 | 96 | 1021.0 |
| 20260507063845 | 26 | 31 | 2.0 | 3.0 | 0.00 | 0.00 | 0.00 | 96 | 1020.9 |
| 20260507063341 | 26 | 27 | 3.0 | 3.0 | 0.00 | 0.00 | 0.00 | 96 | 1021.0 |
| 20260507062838 | 26 | 358 | 1.0 | 2.0 | 0.00 | 0.00 | 0.00 | 96 | 1020.9 |
| 20260507062335 | 26 | 25 | 3.0 | 3.0 | 0.00 | 0.00 | 0.00 | 96 | 1020.7 |
| 20260507061833 | 26 | 24 | 4.0 | 4.0 | 0.00 | 0.00 | 0.00 | 96 | 1021.0 |
| 20260507061331 | 27 | 39 | 3.0 | 3.0 | 0.00 | 0.00 | 0.00 | 96 | 1021.0 |
| 20260507060829 | 27 | 17 | 3.0 | 3.0 | 0.00 | 0.00 | 0.00 | 96 | 1020.9 |
| 20260507060325 | 27 | 12 | 1.0 | 2.0 | 0.00 | 0.00 | 0.00 | 96 | 1021.0 |
| 20260507055822 | 27 | 24 | 1.0 | 2.0 | 0.00 | 0.00 | 0.00 | 96 | 1020.9 |
| 20260507055317 | 28 | 359 | 2.0 | 2.0 | 0.00 | 0.00 | 0.00 | 96 | 1020.9 |
| 20260507054814 | 28 | 348 | 1.0 | 2.0 | 0.00 | 0.00 | 0.00 | 96 | 1020.5 |
| 20260507054310 | 28 | 2 | 1.0 | 2.0 | 0.00 | 0.00 | 0.00 | 96 | 1020.7 |
| 20260507053808 | 28 | 10 | 0.0 | 3.0 | 0.00 | 0.00 | 0.00 | 95 | 1020.6 |
| 20260507053306 | 28 | 25 | 0.0 | 2.0 | 0.00 | 0.00 | 0.00 | 95 | 1020.7 |
| 20260507052804 | 28 | 31 | 2.0 | 2.0 | 0.00 | 0.00 | 0.00 | 95 | 1020.7 |
| 20260507052300 | 28 | 127 | 0.0 | 2.0 | 0.00 | 0.00 | 0.00 | 95 | 1020.7 |
| 20260507051759 | 28 | 13 | 2.0 | 2.0 | 0.00 | 0.00 | 0.00 | 95 | 1020.6 |
| 20260507051255 | 29 | 147 | 1.0 | 2.0 | 0.00 | 0.00 | 0.00 | 95 | 1020.5 |
| 20260507050752 | 29 | 174 | 2.0 | 4.0 | 0.00 | 0.00 | 0.00 | 95 | 1020.2 |
| 20260507050248 | 29 | 211 | 2.0 | 2.0 | 0.00 | 0.00 | 0.00 | 95 | 1020.7 |
| 20260507045745 | 29 | 166 | 2.0 | 3.0 | 0.00 | 0.00 | 0.00 | 94 | 1020.4 |
| 20260507045241 | 29 | 181 | 1.0 | 3.0 | 0.00 | 0.00 | 0.00 | 94 | 1020.5 |
| 20260507044739 | 29 | 114 | 1.0 | 5.0 | 0.00 | 0.00 | 0.00 | 94 | 1020.4 |
| 20260507044235 | 29 | 148 | 2.0 | 6.0 | 0.00 | 0.00 | 0.00 | 93 | 1020.5 |
| 20260507043732 | 29 | 151 | 4.0 | 4.0 | 0.00 | 0.00 | 0.00 | 93 | 1020.4 |
| 20260507043229 | 29 | 159 | 2.0 | 5.0 | 0.00 | 0.00 | 0.00 | 93 | 1020.5 |
| 20260507042726 | 29 | 180 | 0.0 | 5.0 | 0.00 | 0.00 | 0.00 | 93 | 1020.5 |
| 20260507042226 | 29 | 151 | 2.0 | 4.0 | 0.00 | 0.00 | 0.00 | 93 | 1020.4 |
| 20260507041724 | 29 | 213 | 1.0 | 2.0 | 0.00 | 0.00 | 0.00 | 92 | 1020.5 |
| 20260507041220 | 29 | 170 | 4.0 | 4.0 | 0.00 | 0.00 | 0.00 | 92 | 1020.5 |
| 20260507040717 | 29 | 125 | 2.0 | 5.0 | 0.00 | 0.00 | 0.00 | 92 | 1020.6 |
| 20260507040213 | 29 | 149 | 1.0 | 3.0 | 0.00 | 0.00 | 0.00 | 92 | 1020.6 |
| 20260507035709 | 29 | 179 | 2.0 | 3.0 | 0.00 | 0.00 | 0.00 | 91 | 1020.6 |
| 20260507035205 | 29 | 157 | 4.0 | 4.0 | 0.00 | 0.00 | 0.00 | 91 | 1020.6 |
| 20260507034702 | 29 | 178 | 0.0 | 3.0 | 0.00 | 0.00 | 0.00 | 90 | 1020.4 |
| 20260507034200 | 30 | 177 | 2.0 | 2.0 | 0.00 | 0.00 | 0.00 | 90 | 1020.2 |
| 20260507033658 | 30 | 61 | 0.0 | 2.0 | 0.00 | 0.00 | 0.00 | 89 | 1020.4 |
| 20260507033155 | 30 | 149 | 1.0 | 4.0 | 0.00 | 0.00 | 0.00 | 89 | 1020.5 |
| 20260507032652 | 30 | 180 | 0.0 | 2.0 | 0.00 | 0.00 | 0.00 | 89 | 1020.6 |
| 20260507032148 | 30 | 179 | 0.0 | 3.0 | 0.00 | 0.00 | 0.00 | 88 | 1020.5 |
| 20260507031645 | 30 | 179 | 2.0 | 3.0 | 0.00 | 0.00 | 0.00 | 88 | 1020.5 |
| 20260507031141 | 30 | 170 | 2.0 | 4.0 | 0.00 | 0.00 | 0.00 | 88 | 1020.2 |
| 20260507030638 | 30 | 153 | 4.0 | 4.0 | 0.00 | 0.00 | 0.00 | 87 | 1020.2 |
| 20260507030136 | 30 | 127 | 0.0 | 2.0 | 0.00 | 0.00 | 0.00 | 87 | 1020.2 |
| 20260507025633 | 31 | 37 | 0.0 | 2.0 | 0.00 | 0.00 | 0.00 | 86 | 1020.0 |
| 20260507025130 | 31 | 149 | 1.0 | 2.0 | 0.00 | 0.00 | 0.00 | 86 | 1020.1 |
| 20260507024628 | 31 | 124 | 1.0 | 2.0 | 0.00 | 0.00 | 0.00 | 85 | 1020.0 |
| 20260507024125 | 32 | 112 | 2.0 | 4.0 | 0.00 | 0.00 | 0.00 | 84 | 1019.9 |
| 20260507023620 | 32 | 127 | 2.0 | 4.0 | 0.00 | 0.00 | 0.00 | 83 | 1020.0 |
| 20260507023118 | 32 | 185 | 3.0 | 6.0 | 0.00 | 0.00 | 0.00 | 83 | 1019.9 |
| 20260507022615 | 32 | 192 | 4.0 | 4.0 | 0.00 | 0.00 | 0.00 | 82 | 1019.9 |
| 20260507022110 | 32 | 13 | 3.0 | 3.0 | 0.00 | 0.00 | 0.00 | 81 | 1020.0 |
| 20260507021606 | 32 | 185 | 1.0 | 4.0 | 0.00 | 0.00 | 0.00 | 81 | 1019.6 |
| 20260507021102 | 33 | 187 | 2.0 | 3.0 | 0.00 | 0.00 | 0.00 | 81 | 1019.9 |
| 20260507020601 | 33 | 332 | 0.0 | 2.0 | 0.00 | 0.00 | 0.00 | 80 | 1020.0 |
| 20260507020057 | 33 | 164 | 6.0 | 8.0 | 0.00 | 0.00 | 0.00 | 79 | 1019.7 |
| 20260507015556 | 33 | 308 | 1.0 | 4.0 | 0.00 | 0.00 | 0.00 | 78 | 1019.5 |
| 20260507015053 | 34 | 316 | 2.0 | 3.0 | 0.00 | 0.00 | 0.00 | 78 | 1019.9 |
| 20260507014549 | 34 | 71 | 2.0 | 6.0 | 0.00 | 0.00 | 0.00 | 75 | 1019.6 |
| 20260507014044 | 35 | 216 | 1.0 | 6.0 | 0.00 | 0.00 | 0.00 | 74 | 1019.9 |
| 20260507013541 | 35 | 25 | 2.0 | 4.0 | 0.00 | 0.00 | 0.00 | 74 | 1019.9 |
| 20260507013039 | 35 | 250 | 2.0 | 5.0 | 0.00 | 0.00 | 0.00 | 73 | 1019.7 |
| 20260507012536 | 35 | 144 | 1.0 | 4.0 | 0.00 | 0.00 | 0.00 | 74 | 1019.6 |
| 20260507012032 | 36 | 306 | 1.0 | 8.0 | 0.00 | 0.00 | 0.00 | 72 | 1019.6 |
| 20260507011530 | 36 | 123 | 3.0 | 8.0 | 0.00 | 0.00 | 0.00 | 71 | 1019.9 |
| 20260507011026 | 37 | 170 | 4.0 | 9.0 | 0.00 | 0.00 | 0.00 | 69 | 1019.6 |
| 20260507010520 | 37 | 170 | 6.0 | 10.0 | 0.00 | 0.00 | 0.00 | 68 | 1019.9 |
| 20260507010017 | 37 | 228 | 4.0 | 6.0 | 0.00 | 0.00 | 0.00 | 68 | 1019.6 |
| 20260507005515 | 37 | 78 | 2.0 | 7.0 | 0.00 | 0.00 | 0.00 | 69 | 1019.5 |
| 20260507005011 | 37 | 167 | 6.0 | 9.0 | 0.00 | 0.00 | 0.00 | 69 | 1019.4 |
| 20260507004508 | 37 | 212 | 2.0 | 5.0 | 0.00 | 0.00 | 0.00 | 69 | 1019.5 |
| 20260507004006 | 37 | 180 | 2.0 | 7.0 | 0.00 | 0.00 | 0.00 | 69 | 1019.4 |
| 20260507003500 | 38 | 175 | 4.0 | 11.0 | 0.00 | 0.00 | 0.00 | 69 | 1019.4 |
| 20260507002955 | 38 | 169 | 5.0 | 8.0 | 0.00 | 0.00 | 0.00 | 67 | 1019.5 |
| 20260507002453 | 38 | 135 | 2.0 | 4.0 | 0.00 | 0.00 | 0.00 | 70 | 1019.4 |
| 20260507001949 | 37 | 160 | 2.0 | 9.0 | 0.00 | 0.00 | 0.00 | 67 | 1019.2 |
| 20260507001446 | 37 | 281 | 3.0 | 9.0 | 0.00 | 0.00 | 0.00 | 67 | 1019.5 |
| 20260507000943 | 37 | 153 | 4.0 | 6.0 | 0.00 | 0.00 | 0.00 | 67 | 1019.6 |
| 20260507000439 | 38 | 181 | 4.0 | 5.0 | 0.00 | 0.00 | 0.00 | 68 | 1019.4 |
| 20260506235934 | 38 | 218 | 2.0 | 4.0 | 0.00 | 0.00 | 0.00 | 69 | 1019.5 |
| 20260506235432 | 37 | 181 | 3.0 | 8.0 | 0.00 | 0.00 | 0.00 | 70 | 1019.9 |
| 20260506234927 | 37 | 182 | 1.0 | 6.0 | 0.00 | 0.00 | 0.00 | 69 | 1019.5 |
| 20260506234426 | 37 | 175 | 4.0 | 6.0 | 0.00 | 0.00 | 0.00 | 68 | 1019.4 |
| 20260506233923 | 37 | 178 | 4.0 | 5.0 | 0.00 | 0.00 | 0.00 | 69 | 1019.5 |
| 20260506233419 | 36 | 255 | 3.0 | 5.0 | 0.00 | 0.00 | 0.00 | 71 | 1019.4 |
| 20260506232916 | 36 | 323 | 0.0 | 4.0 | 0.00 | 0.00 | 0.00 | 71 | 1019.5 |
| 20260506232412 | 36 | 285 | 2.0 | 5.0 | 0.00 | 0.00 | 0.00 | 71 | 1019.2 |
| 20260506231908 | 36 | 344 | 0.0 | 4.0 | 0.00 | 0.00 | 0.00 | 70 | 1019.5 |
| 20260506231406 | 35 | 20 | 2.0 | 5.0 | 0.00 | 0.00 | 0.00 | 70 | 1019.5 |
| 20260506230903 | 35 | 292 | 4.0 | 6.0 | 0.00 | 0.00 | 0.00 | 71 | 1019.5 |
| 20260506230400 | 34 | 349 | 2.0 | 4.0 | 0.00 | 0.00 | 0.00 | 72 | 1019.5 |
| 20260506225856 | 34 | 42 | 0.0 | 4.0 | 0.00 | 0.00 | 0.00 | 72 | 1019.4 |
| 20260506225353 | 34 | 357 | 4.0 | 5.0 | 0.00 | 0.00 | 0.00 | 74 | 1019.5 |
| 20260506224850 | 34 | 14 | 5.0 | 6.0 | 0.00 | 0.00 | 0.00 | 74 | 1019.5 |
| 20260506224348 | 34 | 353 | 3.0 | 6.0 | 0.00 | 0.00 | 0.00 | 74 | 1019.5 |
| 20260506223844 | 34 | 6 | 4.0 | 8.0 | 0.00 | 0.00 | 0.00 | 75 | 1019.4 |
| 20260506223339 | 34 | 8 | 4.0 | 7.0 | 0.00 | 0.00 | 0.00 | 75 | 1019.7 |
| 20260506222836 | 34 | 0 | 4.0 | 9.0 | 0.00 | 0.00 | 0.00 | 73 | 1019.6 |
| 20260506222331 | 34 | 16 | 6.0 | 6.0 | 0.00 | 0.00 | 0.00 | 77 | 1019.5 |
| 20260506221824 | 34 | 340 | 6.0 | 8.0 | 0.00 | 0.00 | 0.00 | 76 | 1019.7 |
| 20260506221321 | 34 | 9 | 5.0 | 8.0 | 0.00 | 0.00 | 0.00 | 75 | 1019.6 |
| 20260506220820 | 34 | 329 | 6.0 | 8.0 | 0.00 | 0.00 | 0.00 | 76 | 1019.6 |
| 20260506220319 | 33 | 337 | 6.0 | 10.0 | 0.00 | 0.00 | 0.00 | 77 | 1019.9 |
| 20260506215816 | 33 | 2 | 6.0 | 8.0 | 0.00 | 0.00 | 0.00 | 78 | 1019.7 |
| 20260506215312 | 33 | 335 | 8.0 | 9.0 | 0.00 | 0.00 | 0.00 | 79 | 1019.7 |
| 20260506214808 | 33 | 313 | 9.0 | 12.0 | 0.00 | 0.00 | 0.00 | 81 | 1019.9 |
| 20260506214305 | 32 | 26 | 9.0 | 11.0 | 0.00 | 0.00 | 0.00 | 81 | 1019.7 |
| 20260506213804 | 32 | 9 | 7.0 | 12.0 | 0.00 | 0.00 | 0.00 | 81 | 1019.6 |
| 20260506213300 | 33 | 358 | 7.0 | 13.0 | 0.00 | 0.00 | 0.00 | 79 | 1019.7 |
| 20260506212757 | 32 | 318 | 8.0 | 9.0 | 0.00 | 0.00 | 0.00 | 83 | 1019.7 |
| 20260506212253 | 32 | 14 | 5.0 | 10.0 | 0.00 | 0.00 | 0.00 | 81 | 1020.0 |
| 20260506211748 | 31 | 0 | 4.0 | 11.0 | 0.00 | 0.00 | 0.00 | 83 | 1020.0 |
| 20260506211245 | 31 | 22 | 7.0 | 10.0 | 0.00 | 0.00 | 0.00 | 84 | 1019.9 |
| 20260506210742 | 31 | 10 | 8.0 | 9.0 | 0.00 | 0.00 | 0.00 | 83 | 1020.2 |
| 20260506210239 | 31 | 337 | 4.0 | 6.0 | 0.00 | 0.00 | 0.00 | 85 | 1020.4 |
| 20260506205736 | 30 | 1 | 3.0 | 8.0 | 0.00 | 0.00 | 0.00 | 85 | 1020.1 |
| 20260506205232 | 30 | 37 | 7.0 | 7.0 | 0.00 | 0.00 | 0.00 | 86 | 1020.2 |
| 20260506204729 | 30 | 37 | 5.0 | 8.0 | 0.00 | 0.00 | 0.00 | 86 | 1020.0 |
| 20260506204226 | 30 | 32 | 8.0 | 9.0 | 0.00 | 0.00 | 0.00 | 87 | 1020.5 |
| 20260506203725 | 30 | 322 | 5.0 | 8.0 | 0.00 | 0.00 | 0.00 | 87 | 1020.4 |
| 20260506203221 | 30 | 11 | 7.0 | 10.0 | 0.00 | 0.00 | 0.00 | 86 | 1019.9 |
| 20260506202719 | 31 | 34 | 10.0 | 11.0 | 0.00 | 0.00 | 0.00 | 87 | 1020.1 |
| 20260506202215 | 31 | 332 | 6.0 | 8.0 | 0.00 | 0.00 | 0.00 | 86 | 1020.1 |
| 20260506201712 | 32 | 341 | 6.0 | 14.0 | 0.00 | 0.00 | 0.00 | 84 | 1020.4 |
| 20260506201208 | 32 | 353 | 7.0 | 13.0 | 0.00 | 0.00 | 0.00 | 82 | 1020.0 |